�������l�o���
Date,Time,MP-1(��Sv/h),MP-2(��Sv/h),MP-3(��Sv/h),MP-4(��Sv/h),MP-5(��Sv/h),MP-6(��Sv/h),MP-7(��Sv/h),MP-8(��Sv/h),����,����(m/s),���J
2018/12/30,00:00,0.776,1.163,0.818,1.493,1.060,0.450,0.797,0.755,���쐼,1.1,��
2018/12/30,00:10,0.776,1.163,0.816,1.491,1.060,0.450,0.796,0.756,�쐼,1.7,��
2018/12/30,00:20,0.776,1.162,0.816,1.494,1.057,0.450,0.795,0.755,�쐼,3.0,��
2018/12/30,00:30,0.776,1.162,0.817,1.495,1.058,0.449,0.798,0.754,���쐼,2.8,��
2018/12/30,00:40,0.777,1.164,0.818,1.494,1.058,0.450,0.795,0.754,���쐼,2.9,��
2018/12/30,00:50,0.776,1.163,0.818,1.495,1.057,0.450,0.795,0.756,���쐼,1.7,��
2018/12/30,01:00,0.778,1.163,0.816,1.494,1.057,0.450,0.796,0.754,��,2.3,��
2018/12/30,01:10,0.775,1.163,0.816,1.494,1.058,0.448,0.795,0.755,���쐼,3.4,��
2018/12/30,01:20,0.777,1.163,0.815,1.493,1.061,0.450,0.795,0.756,���쐼,3.1,��
2018/12/30,01:30,0.777,1.162,0.816,1.494,1.059,0.448,0.797,0.754,���쐼,3.2,��
2018/12/30,01:40,0.778,1.160,0.816,1.493,1.057,0.449,0.796,0.754,���쐼,3.1,��
2018/12/30,01:50,0.777,1.162,0.816,1.491,1.058,0.449,0.796,0.755,���쐼,3.2,��
2018/12/30,02:00,0.775,1.163,0.815,1.494,1.056,0.447,0.795,0.754,���쐼,3.1,��
2018/12/30,02:10,0.776,1.160,0.816,1.493,1.058,0.450,0.797,0.755,���쐼,3.5,��
2018/12/30,02:20,0.776,1.162,0.816,1.494,1.055,0.450,0.794,0.754,���쐼,3.0,��
2018/12/30,02:30,0.778,1.159,0.817,1.496,1.057,0.450,0.796,0.755,���쐼,3.2,��
2018/12/30,02:40,0.776,1.162,0.817,1.495,1.057,0.448,0.796,0.755,���쐼,4.0,��
2018/12/30,02:50,0.776,1.164,0.816,1.494,1.056,0.450,0.797,0.752,��,4.5,��
2018/12/30,03:00,0.775,1.161,0.817,1.491,1.056,0.450,0.796,0.755,���쐼,5.1,��
2018/12/30,03:10,0.775,1.160,0.815,1.494,1.056,0.450,0.796,0.756,��,5.1,��
2018/12/30,03:20,0.776,1.161,0.816,1.495,1.056,0.449,0.795,0.755,���쐼,5.2,��
2018/12/30,03:30,0.776,1.163,0.817,1.496,1.056,0.448,0.798,0.755,��,4.2,��
2018/12/30,03:40,0.776,1.161,0.816,1.491,1.058,0.448,0.795,0.754,��,3.9,��
2018/12/30,03:50,0.776,1.163,0.815,1.492,1.055,0.449,0.796,0.755,��,3.4,��
2018/12/30,04:00,0.777,1.160,0.815,1.491,1.057,0.448,0.795,0.754,��,3.1,��
2018/12/30,04:10,0.776,1.160,0.815,1.495,1.056,0.450,0.795,0.756,��,3.2,��
2018/12/30,04:20,0.775,1.160,0.817,1.491,1.055,0.450,0.796,0.753,���k��,3.3,��
2018/12/30,04:30,0.778,1.162,0.819,1.494,1.055,0.449,0.794,0.757,���k��,4.4,��
2018/12/30,04:40,0.774,1.162,0.817,1.493,1.057,0.449,0.796,0.755,��,2.2,��
2018/12/30,04:50,0.778,1.159,0.816,1.493,1.057,0.450,0.795,0.755,��,2.0,��
2018/12/30,05:00,0.776,1.159,0.814,1.494,1.054,0.449,0.796,0.755,���k��,0.9,��
2018/12/30,05:10,0.775,1.161,0.816,1.493,1.055,0.450,0.796,0.755,���k��,1.2,��
2018/12/30,05:20,0.775,1.161,0.817,1.493,1.056,0.449,0.796,0.754,���쐼,1.1,��
2018/12/30,05:30,0.777,1.162,0.817,1.493,1.055,0.449,0.795,0.756,���k��,1.7,��
2018/12/30,05:40,0.774,1.159,0.816,1.492,1.054,0.449,0.795,0.755,���k��,1.5,��
2018/12/30,05:50,0.777,1.160,0.814,1.492,1.056,0.450,0.796,0.754,�k��,0.8,��
2018/12/30,06:00,0.778,1.161,0.814,1.489,1.054,0.449,0.794,0.756,�k��,1.1,��
2018/12/30,06:10,0.775,1.160,0.815,1.493,1.054,0.450,0.795,0.754,�k��,0.9,��
2018/12/30,06:20,0.775,1.161,0.815,1.492,1.056,0.451,0.794,0.756,�k�k��,1.5,��
2018/12/30,06:30,0.778,1.159,0.815,1.489,1.054,0.450,0.796,0.755,�k��,2.6,��
2018/12/30,06:40,0.776,1.161,0.815,1.492,1.053,0.449,0.795,0.756,�k��,2.3,��
2018/12/30,06:50,0.775,1.162,0.815,1.492,1.055,0.451,0.796,0.755,�k��,0.6,��
2018/12/30,07:00,0.775,1.160,0.814,1.491,1.054,0.449,0.794,0.755,���쓌,0.6,��
2018/12/30,07:10,0.775,1.158,0.815,1.492,1.057,0.450,0.796,0.755,�k��,1.2,��
2018/12/30,07:20,0.776,1.159,0.815,1.494,1.055,0.448,0.796,0.754,�k��,1.2,��
2018/12/30,07:30,0.775,1.159,0.815,1.490,1.054,0.448,0.795,0.755,�k��,0.6,��
2018/12/30,07:40,0.774,1.160,0.818,1.493,1.054,0.450,0.796,0.754,�k,1.9,��
2018/12/30,07:50,0.776,1.161,0.816,1.491,1.057,0.450,0.795,0.755,���k��,0.9,��
2018/12/30,08:00,0.777,1.162,0.818,1.492,1.055,0.450,0.796,0.755,�k��,0.9,��
2018/12/30,08:10,0.775,1.162,0.817,1.492,1.055,0.451,0.797,0.756,�k,1.5,��
2018/12/30,08:20,0.776,1.161,0.818,1.493,1.056,0.450,0.796,0.755,���k��,0.8,��
2018/12/30,08:30,0.776,1.162,0.816,1.494,1.056,0.451,0.796,0.754,�k��,0.6,��
2018/12/30,08:40,0.778,1.164,0.816,1.492,1.056,0.450,0.795,0.754,��쐼,1.2,��
2018/12/30,08:50,0.778,1.160,0.818,1.490,1.058,0.451,0.797,0.754,�쐼,1.2,��
2018/12/30,09:00,0.777,1.163,0.817,1.492,1.057,0.450,0.797,0.755,���k��,1.2,��
2018/12/30,09:10,0.777,1.162,0.815,1.492,1.055,0.451,0.796,0.756,�k��,1.4,��
2018/12/30,09:20,0.778,1.160,0.818,1.494,1.057,0.450,0.797,0.757,-,CALM,��
2018/12/30,09:30,0.779,1.164,0.817,1.493,1.058,0.450,0.798,0.756,�쓌,0.6,��
2018/12/30,09:40,0.780,1.163,0.817,1.494,1.059,0.450,0.799,0.756,��쓌,1.2,��
2018/12/30,09:50,0.779,1.163,0.817,1.495,1.056,0.451,0.798,0.757,�쓌,0.9,��
2018/12/30,10:00,0.779,1.161,0.818,1.495,1.057,0.450,0.799,0.757,�쓌,1.7,��
2018/12/30,10:10,0.778,1.163,0.819,1.492,1.058,0.451,0.796,0.755,�쓌,2.0,��
2018/12/30,10:20,0.778,1.165,0.819,1.494,1.056,0.451,0.797,0.755,��,1.7,��
2018/12/30,10:30,0.779,1.164,0.818,1.494,1.057,0.452,0.798,0.756,�k�k��,0.9,��
2018/12/30,10:40,0.778,1.166,0.821,1.494,1.056,0.452,0.795,0.757,���k��,4.7,��
2018/12/30,10:50,0.778,1.165,0.818,1.494,1.059,0.452,0.798,0.755,�k��,3.4,��
2018/12/30,11:00,0.781,1.164,0.820,1.495,1.058,0.452,0.794,0.757,�k��,5.0,��
2018/12/30,11:10,0.781,1.166,0.817,1.494,1.061,0.452,0.795,0.755,�k��,7.5,��
2018/12/30,11:20,0.780,1.164,0.819,1.496,1.061,0.451,0.796,0.758,�k��,12.0,��
2018/12/30,11:30,0.782,1.164,0.820,1.496,1.061,0.452,0.799,0.756,�k��,12.1,��
2018/12/30,11:40,0.781,1.163,0.820,1.495,1.062,0.452,0.799,0.758,�k��,8.5,��
2018/12/30,11:50,0.782,1.161,0.822,1.494,1.062,0.452,0.799,0.757,�k��,8.1,��
2018/12/30,12:00,0.780,1.165,0.819,1.499,1.063,0.451,0.800,0.756,�k�k��,6.6,��
2018/12/30,12:10,0.781,1.164,0.820,1.497,1.065,0.452,0.800,0.756,�k,5.1,��
2018/12/30,12:20,0.779,1.165,0.822,1.498,1.062,0.451,0.800,0.758,�k,5.4,��
2018/12/30,12:30,0.781,1.165,0.821,1.498,1.062,0.450,0.801,0.758,�k�k��,6.0,��
2018/12/30,12:40,0.781,1.165,0.820,1.497,1.062,0.451,0.798,0.758,�k,5.3,��
2018/12/30,12:50,0.782,1.166,0.822,1.499,1.062,0.452,0.799,0.757,�k�k��,4.3,��
2018/12/30,13:00,0.783,1.170,0.821,1.499,1.063,0.451,0.799,0.756,��,8.3,��
2018/12/30,13:10,0.781,1.169,0.822,1.497,1.064,0.452,0.798,0.756,���k��,9.3,��
2018/12/30,13:20,0.782,1.169,0.821,1.497,1.061,0.451,0.799,0.754,���k��,10.2,��
2018/12/30,13:30,0.782,1.168,0.819,1.495,1.066,0.452,0.799,0.755,���k��,7.5,��
2018/12/30,13:40,0.781,1.165,0.819,1.497,1.064,0.451,0.799,0.755,�k�k��,2.0,��
2018/12/30,13:50,0.781,1.166,0.821,1.498,1.064,0.452,0.798,0.754,�k�k��,4.1,��
2018/12/30,14:00,0.780,1.169,0.820,1.498,1.063,0.453,0.799,0.757,�k�k��,5.2,��
2018/12/30,14:10,0.781,1.170,0.822,1.496,1.062,0.455,0.798,0.759,�k,4.9,��
2018/12/30,14:20,0.780,1.166,0.821,1.500,1.064,0.451,0.799,0.757,�k,5.6,��
2018/12/30,14:30,0.780,1.166,0.821,1.500,1.062,0.451,0.800,0.756,�k�k��,7.2,��
2018/12/30,14:40,0.780,1.167,0.820,1.496,1.061,0.450,0.798,0.758,�k�k��,9.3,��
2018/12/30,14:50,0.779,1.165,0.822,1.498,1.064,0.452,0.797,0.758,�k�k��,8.0,��
2018/12/30,15:00,0.780,1.166,0.820,1.495,1.064,0.452,0.797,0.756,�k��,8.8,��
2018/12/30,15:10,0.779,1.168,0.821,1.496,1.063,0.450,0.798,0.757,�k��,9.3,��
2018/12/30,15:20,0.780,1.167,0.820,1.499,1.065,0.449,0.798,0.757,�k��,8.6,��
2018/12/30,15:30,0.781,1.167,0.819,1.496,1.062,0.448,0.798,0.757,�k��,9.3,��
2018/12/30,15:40,0.781,1.167,0.820,1.496,1.063,0.447,0.799,0.757,�k��,10.6,��
2018/12/30,15:50,0.780,1.169,0.821,1.493,1.060,0.448,0.799,0.756,�k��,12.7,��
2018/12/30,16:00,0.782,1.168,0.818,1.497,1.062,0.448,0.798,0.757,�k��,12.5,��
2018/12/30,16:10,0.780,1.167,0.818,1.495,1.062,0.446,0.799,0.756,���k��,11.6,��
2018/12/30,16:20,0.778,1.164,0.817,1.498,1.063,0.446,0.797,0.755,���k��,11.3,��
2018/12/30,16:30,0.779,1.166,0.818,1.496,1.063,0.449,0.794,0.757,���k��,11.3,��
2018/12/30,16:40,0.778,1.164,0.818,1.495,1.059,0.450,0.795,0.756,���k��,10.6,��
2018/12/30,16:50,0.779,1.164,0.817,1.496,1.061,0.447,0.798,0.759,�k��,11.0,��
2018/12/30,17:00,0.777,1.165,0.815,1.495,1.064,0.446,0.794,0.756,�k��,8.1,��
2018/12/30,17:10,0.779,1.166,0.816,1.494,1.063,0.447,0.797,0.755,�k��,6.6,��
2018/12/30,17:20,0.780,1.168,0.816,1.495,1.061,0.446,0.799,0.757,�k��,9.6,��
2018/12/30,17:30,0.778,1.164,0.818,1.495,1.062,0.447,0.798,0.756,�k��,7.6,��
2018/12/30,17:40,0.776,1.167,0.818,1.496,1.061,0.449,0.797,0.756,�k��,5.0,��
2018/12/30,17:50,0.777,1.166,0.818,1.496,1.063,0.448,0.797,0.756,�k��,4.8,��
2018/12/30,18:00,0.778,1.168,0.819,1.499,1.063,0.449,0.798,0.756,�k�k��,2.9,��
2018/12/30,18:10,0.780,1.165,0.821,1.497,1.062,0.449,0.796,0.754,�k,2.0,��
2018/12/30,18:20,0.778,1.168,0.819,1.498,1.062,0.449,0.795,0.756,�k��,2.5,��
2018/12/30,18:30,0.778,1.166,0.819,1.496,1.062,0.450,0.796,0.757,�k��,3.2,��
2018/12/30,18:40,0.778,1.168,0.819,1.498,1.063,0.448,0.796,0.755,�k��,4.4,��
2018/12/30,18:50,0.778,1.166,0.817,1.497,1.062,0.448,0.797,0.755,�k�k��,2.6,��
2018/12/30,19:00,0.777,1.166,0.816,1.497,1.059,0.448,0.797,0.757,�k�k��,3.3,��
2018/12/30,19:10,0.778,1.166,0.817,1.496,1.059,0.449,0.796,0.755,�k�k��,4.5,��
2018/12/30,19:20,0.778,1.168,0.818,1.497,1.060,0.449,0.796,0.755,�k��,6.2,��
2018/12/30,19:30,0.778,1.167,0.817,1.498,1.061,0.449,0.796,0.756,�k�k��,5.3,��
2018/12/30,19:40,0.777,1.166,0.818,1.494,1.061,0.449,0.796,0.755,�k,5.3,��
2018/12/30,19:50,0.778,1.164,0.818,1.498,1.061,0.447,0.796,0.755,�k,6.7,��
2018/12/30,20:00,0.777,1.166,0.818,1.495,1.059,0.449,0.796,0.756,�k�k��,7.1,��
2018/12/30,20:10,0.778,1.167,0.819,1.496,1.061,0.448,0.796,0.756,�k�k��,8.1,��
2018/12/30,20:20,0.781,1.166,0.818,1.497,1.060,0.448,0.796,0.755,�k�k��,7.2,��
2018/12/30,20:30,0.779,1.168,0.819,1.497,1.059,0.447,0.795,0.755,�k�k��,7.3,��
2018/12/30,20:40,0.776,1.164,0.816,1.495,1.061,0.449,0.795,0.755,�k��,7.0,��
2018/12/30,20:50,0.776,1.166,0.818,1.495,1.057,0.449,0.798,0.755,�k��,5.9,��
2018/12/30,21:00,0.778,1.165,0.816,1.497,1.057,0.449,0.796,0.755,�k��,5.5,��
2018/12/30,21:10,0.775,1.167,0.817,1.498,1.060,0.449,0.796,0.755,�k��,6.0,��
2018/12/30,21:20,0.778,1.167,0.818,1.496,1.059,0.448,0.796,0.756,���k��,5.9,��
2018/12/30,21:30,0.777,1.165,0.818,1.495,1.061,0.449,0.796,0.754,���k��,5.9,��
2018/12/30,21:40,0.775,1.164,0.818,1.495,1.061,0.449,0.795,0.755,���k��,6.1,��
2018/12/30,21:50,0.776,1.166,0.817,1.494,1.061,0.449,0.795,0.755,���k��,6.1,��
2018/12/30,22:00,0.780,1.165,0.817,1.495,1.063,0.449,0.796,0.754,���k��,6.7,��
2018/12/30,22:10,0.779,1.165,0.817,1.496,1.062,0.449,0.794,0.755,���k��,6.7,��
2018/12/30,22:20,0.780,1.164,0.817,1.497,1.060,0.449,0.796,0.754,���k��,7.4,��
2018/12/30,22:30,0.780,1.164,0.818,1.496,1.059,0.449,0.795,0.755,�k��,6.4,��
2018/12/30,22:40,0.778,1.166,0.817,1.495,1.059,0.448,0.796,0.755,���k��,6.3,��
2018/12/30,22:50,0.777,1.165,0.819,1.496,1.061,0.449,0.797,0.755,�k��,5.0,��
2018/12/30,23:00,0.776,1.164,0.819,1.499,1.058,0.449,0.797,0.753,���k��,5.6,��
2018/12/30,23:10,0.778,1.164,0.819,1.493,1.057,0.449,0.795,0.755,���k��,6.4,��
2018/12/30,23:20,0.777,1.164,0.819,1.497,1.060,0.447,0.797,0.755,���k��,7.2,��
2018/12/30,23:30,0.778,1.167,0.816,1.495,1.058,0.448,0.796,0.753,���k��,7.3,��
2018/12/30,23:40,0.778,1.165,0.819,1.494,1.060,0.447,0.795,0.755,���k��,6.8,��
2018/12/30,23:50,0.777,1.165,0.816,1.495,1.060,0.448,0.795,0.755,���k��,8.2,��
